Weather History for Plovdiv, Bulgaria

Change the Weather History Date:

Saturday, January 25, 2014

  Actual Average Record
Temperature  
Mean Temperature 42 °F -  
Max Temperature 48 °F - - ()
Min Temperature 37 °F - - ()
Degree Days  
Heating Degree Days 22    
Moisture  
Dew Point 43 °F    
Average Humidity 95    
Maximum Humidity 100    
Minimum Humidity 75    
Precipitation  
Precipitation 0.00 in - - ()
Sea Level Pressure  
Sea Level Pressure 29.61 in    
Wind  
Wind Speed 9 mph ()    
Max Wind Speed 20 mph    
Max Gust Speed -    
Visibility 3.9 miles    
Events Fog , Rain    
T = Trace of Precipitation, MM = Missing Value Source: Averaged Metar Reports

Daily Weather History Graph

Daily Weather History Graph

Search for Another Location

Airport:

Trip Planner

Search our weather history database for the weather conditions in past years. The results will help you decide how hot, cold, wet, or windy it might be!

Date:

Astronomy

Jan. 25, 2014 Rise Set
Actual Time 7:40 AM EET 5:26 PM EET
Civil Twilight 7:10 AM EET 5:56 PM EET
Nautical Twilight 6:36 AM EET 6:30 PM EET
Astronomical Twilight 6:03 AM EET 7:03 PM EET
Moon 1:51 AM EET 12:13 PM EET
Length of Visible Light 10h 45m
Length of Day
9h 45m
Last Quarter, 37% of the Moon is Illuminated
Jan 25
Last Quarter
Jan 30
New
Feb 6
First Quarter
Feb 15
Full
Feb 22
Last Quarter

Hourly Weather History & Observations

Time (EET) Temp. Windchill Dew Point Humidity Pressure Visibility Wind Dir Wind Speed Gust Speed Precip Events Conditions
12:00 AM 41.0 °F 38.1 °F 41.0 °F 100% 29.74 in 0.1 mi West 4.5 mph - N/A Fog Fog
1:00 AM 39.2 °F - 39.2 °F 100% 29.71 in 0.1 mi WNW 2.2 mph - N/A Fog Fog
2:00 AM 41.0 °F 38.1 °F 41.0 °F 100% 29.68 in 0.1 mi Variable 4.5 mph - N/A Fog Fog
3:00 AM 44.6 °F 38.2 °F 44.6 °F 100% 29.65 in 0.6 mi East 13.4 mph - N/A   Light Drizzle
4:00 AM 46.4 °F 38.9 °F 46.4 °F 100% 29.62 in 2.2 mi East 20.1 mph - N/A   Light Drizzle
5:00 AM 46.4 °F 39.3 °F 46.4 °F 100% 29.59 in 1.2 mi East 17.9 mph - N/A Rain Light Rain
6:00 AM 46.4 °F 39.3 °F 46.4 °F 100% 29.56 in 1.4 mi East 17.9 mph - N/A Rain Light Rain
7:00 AM 46.4 °F 40.5 °F 46.4 °F 100% 29.56 in 1.6 mi East 13.4 mph - N/A Rain Light Rain
8:00 AM 44.6 °F 38.9 °F 44.6 °F 100% 29.56 in 3.7 mi East 11.2 mph - N/A Rain Light Rain
8:29 AM 44.6 °F 37.6 °F 44.6 °F 100% 29.56 in 1.6 mi East 15.7 mph - N/A Rain Light Rain
9:00 AM 44.6 °F 38.9 °F 44.6 °F 100% 29.56 in - East 11.2 mph - N/A Rain Light Rain
10:00 AM 44.6 °F 42.3 °F 44.6 °F 100% 29.56 in 5.6 mi Variable 4.5 mph - N/A Rain Light Rain
11:00 AM 46.4 °F 44.4 °F 46.4 °F 100% 29.56 in 6.2 mi Variable 4.5 mph - N/A   Overcast
12:00 PM 46.4 °F - 46.4 °F 100% 29.56 in 5.0 mi Variable 2.2 mph - N/A   Overcast
1:00 PM 46.4 °F 42.0 °F 44.6 °F 93% 29.56 in 6.2 mi WNW 8.9 mph - N/A   Overcast
2:00 PM 48.2 °F - 46.4 °F 93% 29.56 in 6.2 mi NW 6.7 mph - N/A   Overcast
3:00 PM 48.2 °F - 46.4 °F 93% 29.56 in 6.2 mi NW 4.5 mph - N/A   Mostly Cloudy
4:00 PM 48.2 °F - 46.4 °F 93% 29.56 in 3.7 mi NNW 4.5 mph - N/A   Mostly Cloudy
5:00 PM 48.2 °F - 46.4 °F 93% 29.59 in - WNW 4.5 mph - N/A Rain Light Rain
6:00 PM 42.8 °F 34.7 °F 42.8 °F 100% 29.59 in 6.2 mi WNW 17.9 mph - N/A Rain Light Rain
7:00 PM 41.0 °F 31.8 °F 39.2 °F 93% 29.62 in 6.2 mi WNW 20.1 mph - N/A   Overcast
8:00 PM 39.2 °F 29.4 °F 35.6 °F 87% 29.62 in 6.2 mi WNW 20.1 mph - N/A   Mostly Cloudy
9:00 PM 39.2 °F 30.0 °F 33.8 °F 81% 29.65 in 6.2 mi WNW 17.9 mph - N/A   Mostly Cloudy
10:00 PM 37.4 °F 28.3 °F 32.0 °F 81% 29.68 in 6.2 mi West 15.7 mph - N/A   Mostly Cloudy
11:00 PM 37.4 °F 28.3 °F 30.2 °F 75% 29.68 in 6.2 mi West 15.7 mph - N/A   Overcast